Location: PSU-Greenbush Astrophysical Observatory
(37.5140°N, 94.9880°W)
Time: 21:28:50
(UTC-06:00)

Altair - Pass Details

Date: 02 February 2020
Orbit: 1502 x 1682 km, 47.2° (Epoch: 18 February)

Event Time Altitude Azimuth Distance (km) Brightness Sun altitude
Rises 12:35:47 0° 301° (WNW) 4,933 9.9 35.7°
Reaches altitude 10° 12:38:57 10° 301° (WNW) 3,947 9.5 35.7°
Maximum altitude 12:49:10 85° 215° (SW) 1,681 8.5 35.6°
Drops below altitude 10° 12:59:11 10° 128° (SE) 3,875 10.1 35.4°
Sets 13:02:15 0° 128° (SE) 4,839 10.5 35.3°
